Other Public Products
Issued by NWS Grand Forks, ND

Home | Current Version | Previous Version | Graphics & Text | Print | Product List | Glossary On
Versions: 1 2 3 4 5 6 7 8 9 10 11 12 13 14 15 16 17 18 19 20 21 22 23 24 25 26 27 28 29 30 31 32 33 34 35 36 37 38 39 40 41 42 43 44 45 46 47 48 49 50
000
FPUS83 KFGF 040110
OPUFGF
PRAIRIE TO PINES WEATHER ROUNDUP
NATIONAL WEATHER SERVICE EASTERN NORTH DAKOTA/GRAND FORKS ND
700 PM CST TUE MAR 03 2015

 **SATELLITE DATA USED TO AUGMENT SKY COVER AT AUTOMATED STATIONS**
 *****  WEATHER ACROSS EASTERN NORTH DAKOTA  *****

CITY           SKY/WX    TMP DP  RH WIND       PRES   REMARKS
GRAND FORKS    MOCLDY     4  -5  66 NW16G24   29.97R WCI -15
GRAND FORKS AF MOCLDY     3  -8  60 NW15G28   29.97R WCI -15
GRAND CITY NWS   N/A      3 N/A N/A NW15        N/A  WCI -15
BUXTON         NOT AVBL
DEVILS LAKE    CLEAR      0 -11  60 NW26G36   29.94R WCI -25
FARGO          FLURRIES   7  -6  55 NW26G33   30.00R WCI -15
WAHPETON ARPT  PTCLDY     9  -4  56 NW16G25   30.01R WCI  -9
$$

 *****  WEATHER ACROSS CENTRAL AND WESTERN NORTH DAKOTA  *****

CITY           SKY/WX    TMP DP  RH WIND       PRES   REMARKS
JAMESTOWN      CLEAR      3  -6  66 NW21      29.98R WCI -18
BISMARCK       CLEAR      8  -3  61 NW13      30.03R WCI  -8
MINOT          CLEAR      1  -9  62 W16       29.99R WCI -19
MINOT AFB      PTCLDY     1  -7  70 W14       29.98R WCI -18
GARRISON         N/A      2  -7  66 NW20      29.99R WCI -19
WILLISTON      MOCLDY     5  -4  66 N7        30.01S WCI  -7
DICKINSON      MOCLDY     9  -4  55 NW15      29.94R WCI  -8
HETTINGER      CLEAR     10  -6  48 NW16      29.96S WCI  -7
$$

 *****  OTHER OBSERVATIONS NORTHEAST NORTH DAKOTA  *****

CITY           SKY/WX    TMP DP  RH WIND       PRES   REMARKS
WALHALLA         N/A      1  -8  66 NW15G26   29.95R WCI -18
LANGDON        NOT AVBL
CAVALIER       MOCLDY     1  -6  71 NW17G26   29.95R WCI -19
GRAFTON        NOT AVBL
CANDO          FAIR       0  -8  71 W22G28    29.94R WCI -23
FORT TOTTEN      N/A      0  -8  68 NW13      29.95  WCI -18
ROLLA          FAIR      -2  -9  71 W12G22    29.89R WCI -20
RUGBY          FAIR       0  -9  65 W21       29.96R WCI -23
 ***** THE ABOVE OBSERVATIONS ARE NON NWS ARE NOT QUALITY
        CONTROLLED AND MAY MIS-REPORT RAIN FOR SNOW...
$$

 *****  OTHER OBSERVATIONS SOUTHEAST NORTH DAKOTA *****

CITY           SKY/WX    TMP DP  RH WIND       PRES   REMARKS
COOPERSTOWN    NOT AVBL
VALLEY CITY    FLURRIES   3  -4  72 NW25G35   29.98R WCI -20
OAKES            N/A      5  -2  72 NW16G22   30.02R WCI -14
GWINNER        CLEAR      9  -6  52 NW22G30   30.02R WCI -11
SHEYENNE NWR     N/A      5  -5  63 NW14      29.95  WCI -12
BUFFALO        NOT AVBL
WYNDMERE       NOT AVBL
 ***** THE ABOVE OBSERVATIONS ARE NON NWS ARE NOT QUALITY
       CONTROLLED AND MAY MIS-REPORT RAIN FOR SNOW...
$$

  *****  WEATHER ACROSS NORTHERN MINNESOTA  *****

CITY           SKY/WX    TMP DP  RH WIND       PRES   REMARKS
FLAG ISLAND    PTCLDY     0  -8  71 NW15      29.80R WCI -20
WARROAD        PTCLDY     1  -6  71 W13       29.83R WCI -16
ROSEAU         PTCLDY     1  -6  71 W10G17    29.85R WCI -14
HALLOCK        NOT AVBL
THF RVR FALLS  CLOUDY     1  -2  85 W20       29.89R WCI -20
HALSTAD        NOT AVBL
FOSSTON        CLOUDY     0  -6  78 NW13G18   29.90R HAZE    WCI -18
BAUDETTE       MOCLDY     2  -4  76 W13       29.78R HAZE    WCI -15
WASKISH        PTCLDY     3  -2  78 W16G23    29.82R WCI -16
CROOKSTON      PTCLDY     3  -4  72 NW17G23   29.96R WCI -17
$$
  *****  WEATHER ACROSS CENTRAL AND WEST MINNESOTA  *****

CITY           SKY/WX    TMP DP  RH WIND       PRES   REMARKS
BEMIDJI        PTCLDY     1  -7  69 W17G25    29.84R WCI -19
PARK RAPIDS    PTCLDY     4  -4  69 NW20      29.85R WCI -17
WADENA         CLEAR      3  -4  72 W18       29.89R WCI -17
DETROIT LAKES  CLEAR      5  -2  72 NW15G22   29.92R WCI -13
MOORHEAD       PTCLDY     7   0  72 NW21      30.00R WCI -13
FERGUS FALLS   PTCLDY     7  -6  56 NW22G35   30.00R WCI -14
ELBOW LAKE     FAIR       6  -1  72 NW20G29   29.97R WCI -14
MORRIS MN      CLEAR      7   0  72 NW18      29.98R WCI -12
STAPLES        MOCLDY     3  -2  78 W14       29.89R WCI -15
WHEATON        CLEAR      7   1  78 W18G26    30.04R WCI -12
$$
  *****  WEATHER ELSEWHERE ACROSS MINNESOTA  *****

CITY           SKY/WX    TMP DP  RH WIND       PRES   REMARKS
DULUTH         PTCLDY    12  -1  56 W16G28    29.71R WCI  -5
INTRNTL FALLS  CLEAR      3 -10  54 W15G23    29.75R WCI -16
ELY            MOCLDY     9  -2  61 NW14G23   29.65R WCI  -8
CLOQUET        PTCLDY    12   0  57 W10       29.74R WCI  -1
BRAINERD       PTCLDY     8  -1  66 W13G22    29.86R WCI  -8
HIBBING        MOCLDY     8  -4  58 W15G21    29.73R WCI  -9
ALEXANDRIA     MOCLDY     7   1  76 NW24      29.92R HAZE    WCI -14
SAINT CLOUD    CLEAR     11   2  67 NW21G28   29.90R WCI  -8
MINNEAPOLIS    PTCLDY    15   4  61 W17       29.89R WCI  -1
$$

  *****  WEATHER ACROSS SOUTH DAKOTA  *****

CITY           SKY/WX    TMP DP  RH WIND       PRES   REMARKS
SIOUX FALLS    PTCLDY    12   3  67 NW14      30.02S WCI  -3
BROOKINGS      NOT AVBL
WATERTOWN      CLEAR      8  -1  66 NW13      29.98R WCI  -8
HURON          PTCLDY    11   2  67 NW3       30.05R
SISSETON         N/A      8  -1  66 N25       30.01R WCI -13
ABERDEEN       CLEAR     10  -1  61 N14       30.05R WCI  -6
MITCHELL       CLEAR     11   3  70 N7        30.07R WCI   0
PIERRE         CLEAR     16   0  49 NW17      30.03R WCI   0
MOBRIDGE       CLEAR     14  -1  51 NW13      29.99R WCI   0
RAPID CITY     PTCLDY    11   0  61 N18       29.97R WCI  -7
$$

  *****  SOME WEATHER IN NEARBY STATES *****

CITY           SKY/WX    TMP DP  RH WIND       PRES   REMARKS
GLASGOW MT     MOCLDY    14  -6  40 NW26G35   30.01R WCI  -6
GREAT FALLS MT CLEAR     17  -2  43 N10       30.04R WCI   5
CHEYENNE WY    LGT SNOW  10   4  76 N8        29.80R WCI  -2
SCOTTSBLUFF NE CLOUDY    18   9  68 NW10      29.96R WCI   6
OMAHA NE       MOCLDY    24   9  52 N17G26    30.02R WCI  11
DES MOINES IA  CLOUDY    28  17  63 N17G25    29.95R WCI  16
DAVENPORT IA   CLOUDY    31  25  78 NW12      29.83R WCI  22
CHICAGO IL     CLOUDY    33  28  81 W12       29.75R WCI  24
EAU CLAIRE WI  CLEAR     23   9  55 W20G25    29.76R WCI   8
LA CROSSE WI   CLOUDY    30  19  63 W18       29.79R WCI  18
$$

  *****  SOME NATIONAL WEATHER *****

CITY           SKY/WX    TMP DP  RH WIND       PRES   REMARKS
LA GUARDIA NY  RAIN      34  30  86 S14G21    30.03F FOG     WCI  24
RALEIGH NC     DRIZZLE   36  34  92 SW3       30.16F FOG
ATLANTA GA     FOG       51  50  96 E5        30.11S VSB<1/4
NEW ORLEANS LA PTCLDY    71  64  78 S13       30.00S
OKLAHOMA CITY  CLOUDY    53  42  66 CALM      29.83S
ALBUQUERQUE NM PTCLDY    54  17  23 W14       29.75R
SALT LAKE CITY MOCLDY    36  23  59 NW7       29.92R
LOS ANGELES CA PTCLDY    58  48  69 W17       29.89F
BOISE ID       CLEAR     42  12  29 NW15G25   30.01S
SEATTLE WA     MOCLDY    49   8  19 N10       30.22S
$$

*** WEATHER ACROSS MANITOBA...SASKATCHEWAN AND ONTARIO ***
                ***ONTARIO***

CITY           SKY/WX    TMP DP  RH WIND       PRES   REMARKS
GERALDTON      LGT SNOW  18  12  79 NW18G29   29.34R DRFTSNOWWCI   2
THUNDER BAY    PTCLDY    16   5  62 W10G18    29.56R WCI   3
SIOUX LOOKOUT  PTCLDY     0 -13  55 NW17G26   29.63R WCI -21
TORONTO        FRZ DRZL  27  27 100 S3        29.55R FOG
BIG TROUT LK   LGT SNOW   3  -2  78 N10G17    29.45R WCI -12
PICKLE LAKE    FLURRIES   0  -9  65 W16G32    29.48R WCI -21
DRYDEN         LGT SNOW   0  -6  78 W14G23    29.67R WCI -19
KENORA         FLURRIES  -2  -9  71 NW9G21    29.75R WCI -18
$$
                *** MANITOBA***

CITY           SKY/WX    TMP DP  RH WIND       PRES   REMARKS
BRANDON        PTCLDY    -4 -11  71 NW17      29.93R WCI -26
DAUPHIN        CLOUDY     0  -9  65 NW13      29.93R WCI -18
ISLAND LAKE    FLURRIES  -6 -11  77 W17       29.70R WCI -28
PILOT MOUND      N/A     -2  -9  71 W14G21      N/A  WCI -21
THE PAS        FLURRIES  -8 -17  65 NW16G22   29.99R WCI -30
THOMPSON       PTCLDY    -4 -13  65 N16G28    29.92R WCI -25
WINNIPEG       PTCLDY    -4 -13  65 NW12      29.92R WCI -22
LYNN LAKE      CLEAR     -8 -17  65 N9        30.02R WCI -25
CHURCHILL      CRYSTALS  -8 -13  77 N17       30.04R WCI -31
GILLAM         MOCLDY    -9 -17  70 N23G29    29.89R BLWGSNOWWCI -36
$$
                ***SASKATCHEWAN***

CITY           SKY/WX    TMP DP  RH WIND       PRES   REMARKS
ESTEVAN        LGT SNOW   1  -4  78 W9        29.95S WCI -14
KINDERSLEY     NOT AVBL
LLOYDMINSTER   PTCLDY     0 -13  55 N15       30.10R WCI -20
PRINCE ALBERT  PTCLDY    -8 -20  54 N15G21    30.09R WCI -29
REGINA         NOT AVBL


USA.gov is the U.S. government's official web portal to all federal, state and local government web resources and services.